Previsão horária em Aljojuca

Hoje, 16 Junho, Quarta-feira

Tempo Temperatura Precipitação Vento Pressão Humidade
00:00 +12°C° 0 mm 2 m/s 561 mmHg 87%
01:00 +12°C° 0 mm 2 m/s 560 mmHg 85%
02:00 +10°C° 0 mm 2 m/s 559 mmHg 83%
03:00 +10°C° 0 mm 2 m/s 559 mmHg 82%
04:00 +10°C° 0 mm 2 m/s 559 mmHg 80%
05:00 +9°C° 0 mm 2 m/s 559 mmHg 79%
06:00 +12°C° 0 mm 2 m/s 560 mmHg 72%
07:00 +14°C° 0 mm 2 m/s 561 mmHg 65%
08:00 +15°C° 0 mm 2 m/s 562 mmHg 58%
09:00 +17°C° 0 mm 2 m/s 562 mmHg 54%
10:00 +18°C° 0 mm 3 m/s 563 mmHg 50%
11:00 +20°C° 0 mm 3 m/s 563 mmHg 46%
12:00 +19°C° 0.1 mm 3 m/s 562 mmHg 50%
13:00 +19°C° 0.1 mm 3 m/s 562 mmHg 54%
14:00 +18°C° 0.1 mm 3 m/s 561 mmHg 58%
15:00 +18°C° 0.1 mm 4 m/s 561 mmHg 61%
16:00 +17°C° 0.1 mm 4 m/s 561 mmHg 63%
17:00 +17°C° 0.1 mm 4 m/s 561 mmHg 66%
18:00 +14°C° 0.1 mm 3 m/s 561 mmHg 71%
19:00 +13°C° 0.1 mm 3 m/s 561 mmHg 77%
20:00 +12°C° 0.1 mm 3 m/s 561 mmHg 82%
21:00 +13°C° 0.1 mm 2 m/s 561 mmHg 83%
22:00 +12°C° 0.1 mm 2 m/s 561 mmHg 85%
23:00 +12°C° 0.1 mm 2 m/s 560 mmHg 86%

Amanhã, 17 Junho, Quinta-feira

Tempo Temperatura Precipitação Vento Pressão Humidade
00:00 +12°C° 0 mm 2 m/s 560 mmHg 87%
01:00 +10°C° 0 mm 2 m/s 559 mmHg 88%
02:00 +10°C° 0 mm 2 m/s 559 mmHg 88%
03:00 +10°C° 0 mm 2 m/s 559 mmHg 88%
04:00 +9°C° 0 mm 2 m/s 559 mmHg 88%
05:00 +9°C° 0 mm 2 m/s 559 mmHg 88%
06:00 +12°C° 0 mm 2 m/s 560 mmHg 77%
07:00 +14°C° 0 mm 2 m/s 561 mmHg 67%
08:00 +16°C° 0 mm 2 m/s 562 mmHg 57%
09:00 +17°C° 0 mm 2 m/s 562 mmHg 54%
10:00 +18°C° 0 mm 2 m/s 562 mmHg 51%
11:00 +20°C° 0 mm 2 m/s 562 mmHg 49%
12:00 +19°C° 0.2 mm 2 m/s 562 mmHg 54%
13:00 +18°C° 0.2 mm 2 m/s 561 mmHg 60%
14:00 +17°C° 0.2 mm 2 m/s 561 mmHg 66%
15:00 +17°C° 0.5 mm 2 m/s 561 mmHg 67%
16:00 +17°C° 0.5 mm 2 m/s 561 mmHg 69%
17:00 +16°C° 0.5 mm 2 m/s 560 mmHg 70%
18:00 +16°C° 0.2 mm 2 m/s 560 mmHg 75%
19:00 +15°C° 0.2 mm 2 m/s 560 mmHg 80%
20:00 +14°C° 0.2 mm 2 m/s 561 mmHg 84%
21:00 +13°C° 0.1 mm 2 m/s 561 mmHg 86%
22:00 +13°C° 0.1 mm 2 m/s 561 mmHg 87%
23:00 +13°C° 0.1 mm 2 m/s 561 mmHg 88%

Depois de amanhã, 18 Junho, Sexta-feira

Tempo Temperatura Precipitação Vento Pressão Humidade
00:00 +13°C° 0 mm 1 m/s 560 mmHg 88%
01:00 +12°C° 0 mm 1 m/s 560 mmHg 88%
02:00 +12°C° 0 mm 1 m/s 559 mmHg 88%
03:00 +12°C° 0 mm 1 m/s 559 mmHg 88%
04:00 +12°C° 0 mm 1 m/s 559 mmHg 88%
05:00 +12°C° 0 mm 1 m/s 559 mmHg 88%
06:00 +13°C° 0 mm 1 m/s 560 mmHg 81%
07:00 +15°C° 0 mm 1 m/s 561 mmHg 74%
08:00 +16°C° 0 mm 1 m/s 562 mmHg 68%
09:00 +18°C° 0.1 mm 1 m/s 562 mmHg 64%
10:00 +18°C° 0.1 mm 2 m/s 562 mmHg 61%
11:00 +20°C° 0.1 mm 2 m/s 562 mmHg 58%
12:00 +19°C° 0.4 mm 3 m/s 562 mmHg 62%
13:00 +18°C° 0.4 mm 3 m/s 561 mmHg 67%
14:00 +17°C° 0.4 mm 3 m/s 561 mmHg 72%
15:00 +17°C° 0.3 mm 3 m/s 561 mmHg 72%
16:00 +17°C° 0.3 mm 3 m/s 561 mmHg 73%
17:00 +17°C° 0.3 mm 3 m/s 561 mmHg 73%
18:00 +16°C° 0.1 mm 2 m/s 561 mmHg 77%
19:00 +15°C° 0.1 mm 2 m/s 561 mmHg 81%
20:00 +14°C° 0.1 mm 2 m/s 561 mmHg 85%
21:00 +13°C° 0 mm 1 m/s 561 mmHg 85%
22:00 +13°C° 0 mm 1 m/s 561 mmHg 85%
23:00 +13°C° 0 mm 1 m/s 561 mmHg 84%

19 Junho, Sábado

Tempo Temperatura Precipitação Vento Pressão Humidade
00:00 +13°C° 0 mm 1 m/s 561 mmHg 85%
01:00 +12°C° 0 mm 0 m/s 560 mmHg 86%
02:00 +12°C° 0 mm 0 m/s 560 mmHg 86%
03:00 +11°C° 0 mm 0 m/s 560 mmHg 87%
04:00 +11°C° 0 mm 0 m/s 560 mmHg 88%
05:00 +11°C° 0 mm 0 m/s 559 mmHg 89%
06:00 +13°C° 0 mm 1 m/s 561 mmHg 82%
07:00 +15°C° 0 mm 1 m/s 562 mmHg 76%
08:00 +18°C° 0 mm 1 m/s 563 mmHg 69%
09:00 +18°C° 0.2 mm 2 m/s 563 mmHg 65%
10:00 +20°C° 0.2 mm 3 m/s 563 mmHg 60%
11:00 +21°C° 0.2 mm 4 m/s 563 mmHg 56%
12:00 +21°C° 0.5 mm 4 m/s 563 mmHg 58%
13:00 +20°C° 0.5 mm 5 m/s 563 mmHg 60%
14:00 +20°C° 0.5 mm 6 m/s 562 mmHg 62%
15:00 +17°C° 1.8 mm 5 m/s 562 mmHg 71%
16:00 +17°C° 1.8 mm 4 m/s 562 mmHg 80%
17:00 +16°C° 1.8 mm 2 m/s 561 mmHg 90%
18:00 +15°C° 1.2 mm 2 m/s 562 mmHg 89%
19:00 +15°C° 1.2 mm 1 m/s 562 mmHg 89%
20:00 +15°C° 1.2 mm 1 m/s 562 mmHg 88%
21:00 +15°C° 0.1 mm 1 m/s 562 mmHg 89%
22:00 +14°C° 0.1 mm 1 m/s 562 mmHg 90%
23:00 +14°C° 0.1 mm 1 m/s 562 mmHg 91%

20 Junho, Domingo

Tempo Temperatura Precipitação Vento Pressão Humidade
00:00 +14°C° 0 mm 1 m/s 561 mmHg 92%
01:00 +13°C° 0 mm 1 m/s 561 mmHg 92%
02:00 +13°C° 0 mm 1 m/s 561 mmHg 93%
03:00 +12°C° 0 mm 1 m/s 561 mmHg 93%
04:00 +12°C° 0 mm 1 m/s 561 mmHg 93%
05:00 +12°C° 0 mm 1 m/s 560 mmHg 94%
06:00 +14°C° 0 mm 1 m/s 561 mmHg 85%
07:00 +15°C° 0 mm 1 m/s 562 mmHg 77%
08:00 +18°C° 0 mm 1 m/s 563 mmHg 69%
09:00 +19°C° 0 mm 2 m/s 564 mmHg 63%
10:00 +20°C° 0 mm 3 m/s 564 mmHg 57%
11:00 +21°C° 0 mm 3 m/s 564 mmHg 51%
12:00 +21°C° 0.1 mm 4 m/s 564 mmHg 51%
13:00 +22°C° 0.1 mm 4 m/s 564 mmHg 52%
14:00 +22°C° 0.1 mm 4 m/s 563 mmHg 52%
15:00 +21°C° 0.1 mm 4 m/s 563 mmHg 56%
16:00 +20°C° 0.1 mm 4 m/s 563 mmHg 60%
17:00 +19°C° 0.1 mm 3 m/s 562 mmHg 64%
18:00 +18°C° 0.1 mm 3 m/s 562 mmHg 70%
19:00 +17°C° 0.1 mm 2 m/s 562 mmHg 76%
20:00 +16°C° 0.1 mm 1 m/s 562 mmHg 82%
21:00 +15°C° 0 mm 1 m/s 562 mmHg 83%
22:00 +15°C° 0 mm 1 m/s 562 mmHg 85%
23:00 +15°C° 0 mm 1 m/s 562 mmHg 86%

21 Junho, Segunda-feira

Tempo Temperatura Precipitação Vento Pressão Humidade
00:00 +14°C° 0 mm 1 m/s 561 mmHg 88%
01:00 +14°C° 0 mm 1 m/s 561 mmHg 90%
02:00 +14°C° 0 mm 1 m/s 561 mmHg 92%
03:00 +13°C° 0 mm 1 m/s 561 mmHg 92%
04:00 +13°C° 0 mm 1 m/s 561 mmHg 93%
05:00 +13°C° 0 mm 1 m/s 561 mmHg 93%
06:00 +15°C° 0 mm 1 m/s 562 mmHg 85%
07:00 +18°C° 0 mm 1 m/s 563 mmHg 77%
08:00 +19°C° 0 mm 1 m/s 564 mmHg 69%
09:00 +21°C° 0.1 mm 1 m/s 564 mmHg 63%
10:00 +22°C° 0.1 mm 1 m/s 564 mmHg 57%
11:00 +23°C° 0.1 mm 2 m/s 564 mmHg 51%
12:00 +23°C° 0.5 mm 2 m/s 564 mmHg 51%
13:00 +23°C° 0.5 mm 2 m/s 564 mmHg 51%
14:00 +22°C° 0.5 mm 3 m/s 563 mmHg 52%
15:00 +22°C° 0.4 mm 3 m/s 563 mmHg 56%
16:00 +21°C° 0.4 mm 3 m/s 563 mmHg 60%
17:00 +20°C° 0.4 mm 3 m/s 562 mmHg 65%
18:00 +19°C° 0.6 mm 2 m/s 562 mmHg 71%
19:00 +17°C° 0.6 mm 2 m/s 562 mmHg 78%
20:00 +16°C° 0.6 mm 1 m/s 562 mmHg 84%
21:00 +16°C° 0.1 mm 1 m/s 562 mmHg 85%
22:00 +15°C° 0.1 mm 1 m/s 562 mmHg 85%
23:00 +15°C° 0.1 mm 1 m/s 562 mmHg 86%
Mostrar mais